This is the latest recevied weather packets stored in our database for station/object SQ9SMC-13. If no packets are shown the sender has not sent any weather packets the latest 10 day(s).
| Time | Temp. | Humidity | Pressure | Rain* | Wind** | Luminosity | Snow |
|---|---|---|---|---|---|---|---|
| 1777324504 | 0.56° C | 83% | 1022.8 hPa | 0 mm | - | 0 W/m² | - |
| 1777324203 | 1.11° C | 81% | 1022.7 hPa | 0 mm | - | 0 W/m² | - |
| 1777323904 | 1.11° C | 81% | 1022.7 hPa | 0 mm | - | 0 W/m² | - |
| 1777323602 | 1.11° C | 79% | 1022.7 hPa | 0 mm | - | 0 W/m² | - |
| 1777323303 | 1.67° C | 79% | 1022.9 hPa | 0 mm | - | 0 W/m² | - |
| 1777323003 | 1.67° C | 78% | 1022.9 hPa | 0 mm | - | 0 W/m² | - |
| 1777322704 | 1.67° C | 78% | 1022.8 hPa | 0 mm | - | 0 W/m² | - |
| 1777322403 | 1.67° C | 78% | 1022.9 hPa | 0 mm | - | 0 W/m² | - |
| 1777322103 | 1.67° C | 78% | 1022.7 hPa | 0 mm | - | 0 W/m² | - |
| 1777321803 | 1.67° C | 78% | 1022.9 hPa | 0 mm | - | 0 W/m² | - |
| 1777321503 | 1.67° C | 76% | 1022.9 hPa | 0 mm | - | 0 W/m² | - |
| 1777321205 | 1.67° C | 76% | 1023 hPa | 0 mm | - | 0 W/m² | - |
| 1777320903 | 2.22° C | 76% | 1022.9 hPa | 0 mm | - | 0 W/m² | - |
| 1777320603 | 2.22° C | 76% | 1022.8 hPa | 0 mm | - | 0 W/m² | - |
| 1777320302 | 2.22° C | 75% | 1023 hPa | 0 mm | - | 0 W/m² | - |
| 1777320005 | 2.22° C | 75% | 1023 hPa | 0 mm | - | 0 W/m² | - |
| 1777319704 | 2.22° C | 74% | 1023 hPa | 0 mm | - | 0 W/m² | - |
| 1777319403 | 2.78° C | 73% | 1023.1 hPa | 0 mm | - | 0 W/m² | - |
| 1777319104 | 2.22° C | 73% | 1023 hPa | 0 mm | - | 0 W/m² | - |
| 1777318805 | 2.78° C | 72% | 1023 hPa | 0 mm | - | 0 W/m² | - |
| 1777318503 | 2.78° C | 71% | 1023.3 hPa | 0 mm | - | 0 W/m² | - |
| 1777318203 | 3.33° C | 71% | 1023 hPa | 0 mm | - | 0 W/m² | - |
| 1777317903 | 3.33° C | 70% | 1023.2 hPa | 0 mm | - | 0 W/m² | - |
| 1777317604 | 3.89° C | 69% | 1023 hPa | 0 mm | - | 0 W/m² | - |
| 1777317307 | 3.89° C | 67% | 1023 hPa | 0 mm | - | 0 W/m² | - |
* Rain latest hour (hover to see other rain measurements)
** Current wind speed in m/s (hover to see current wind gust speed)